Starlink 11515

operational
NORAD ID: 62556 Int'l Des: 2025-006 Owner: SPXS Country: US Constellation: starlink
LEOCIRCULAR

Über Starlink 11515

Beschreibung wird geladen...

Live-Position

3D-Globus wird geladen...

Nächste Überflüge

Höhenverlauf

Altitude vs Time

uPlot chart will show altitude changes over time

Zweizeiliger Elementsatz

1 62556U 25006C 25300.51299882 .00241906 00000-0 18290-2 0 9995
2 62556 43.0003 222.9578 0000718 328.6777 31.4048 15.70909919 45657
Epoch: 27. Okt. 2025 • Age: 56 hours

Aktueller Status

Höhe 363.3 km
Geschwindigkeit 7.69 km/s
Subsatellitenpunkt -36.39°S, 171.16°E
Startdatum 10. Jan. 2025
Alter 0.7 years
Typ internet

Technische Details

Klassifizierung Payload
Masse 960.00 kg
Trockenmasse 910.00 kg
Gesamtmasse 960.00 kg
Länge 0.30 m
Durchmesser 4.10 m
Spannweite 29.00 m
Form Box + pan
Hersteller SPXS
Bus-Typ Starlink V2MD
Phasenstatus In Orbit
Besitzer/Staat SPXS/US

Große Konstellationen

Loading constellations...